Regional Weather Roundup
Issued by NWS

Home | Current Version | Previous Version | Text Only | Print | Product List | Glossary On
Versions: 1 2 3 4 5 6 7 8 9 10 11 12 13 14 15 16 17 18 19 20 21 22 23 24 25 26 27 28 29 30 31 32 33 34 35 36 37 38 39 40 41 42 43 44 45 46 47 48 49 50
000
ASUS44 KFWD 041715
RWRTX
NORTH TEXAS HOURLY WEATHER ROUNDUP
NATIONAL WEATHER SERVICE FORT WORTH TX
1100 AM CST SUN DEC 04 2016

NOTE: "FAIR" INDICATES FEW OR NO CLOUDS BELOW 12,000 FEET WITH NO
SIGNIFICANT WEATHER AND/OR OBSTRUCTIONS TO VISIBILITY.

TXZ118-119-041800-
DALLAS/FORT WORTH METROPLEX

CITY           SKY/WX    TMP DP  RH WIND       PRES   REMARKS
DFW AIRPORT    CLOUDY    50  44  80 N12       30.07R
DALLAS LOVE    CLOUDY    51  45  79 N12       30.07R
FTW MEACHAM    CLOUDY    51  44  77 N12       30.08R
DAL-EXECUTIVE  CLOUDY    50  47  89 N7        30.06R
FTW-ALLIANCE   CLOUDY    49  44  83 N12       30.07R
FTW-NAS-JRB    CLOUDY    51  45  79 N9        30.09R
FTW-SPINKS     CLOUDY    48  45  87 N12       30.10R
ARLINGTON      CLOUDY    50  45  83 N10       30.08R
GRAND PRAIRIE  CLOUDY    48  45  87 N9        30.09R
ADDISON        CLOUDY    50  48  93 N7        30.08R
MESQUITE       CLOUDY    48  46  93 N6        30.08
LANCASTER      CLOUDY    51  46  84 N6        30.08S
$$

TXZ091>094-102>105-117-120-121-131>134-041800-
NORTH CENTRAL TEXAS

CITY           SKY/WX    TMP DP  RH WIND       PRES   REMARKS
SHRMAN/DENISON CLOUDY    49  48  96 N8        30.08S
GAINESVILLE    CLOUDY    47  43  87 N10       30.10R
BOWIE          CLOUDY    48  45  87 N10       30.08R
BRIDGEPORT     CLOUDY    48  46  91 N7        30.11R
DECATUR        CLOUDY    46  45  93 N6        30.08S
DENTON         CLOUDY    49  44  83 N13       30.08R
MCKINNEY       CLOUDY    50  47  89 N7        30.07S
BONHAM         CLOUDY    48  45  87 N6        30.08R
GREENVILLE     CLOUDY    48  45  87 N5        30.07R
ROCKWALL       CLOUDY    49  46  92 N7        30.08R
TERRELL        LGT RAIN  49  45  86 N7        30.08R
WAXAHACHIE     CLOUDY    48  48 100 N7        30.09R
CLEBURNE       CLOUDY    48  48 100 N9        30.09R
GRANBURY       CLOUDY    50  45  83 NW12      30.10R
$$

TXZ083>090-098>101-113>116-127>130-139>142-154-155-041800-
WESTERN NORTH TEXAS

CITY           SKY/WX    TMP DP  RH WIND       PRES   REMARKS
WICHITA FALLS  CLOUDY    48  43  82 N10       30.10S
WF-KICKAPOO    CLOUDY    48  42  79 N10       30.12S
VERNON         MOSUNNY   50  40  70 N13G20    30.13R
ABILENE        CLOUDY    47  43  86 N14       30.10S
ABILENE-DYESS  CLOUDY    46  43  87 N16       30.09F WCI  40
CISCO          CLOUDY    45  43  93 N9        30.10R WCI  40
BRECKENRIDGE   CLOUDY    49  44  83 N5        30.11R
GRAHAM         CLOUDY    48  44  85 N8        30.10R
MINERAL WELLS  CLOUDY    48  43  82 N10       30.08R
STEPHENVILLE   CLOUDY    47  44  88 N12       30.10S
COMANCHE       CLOUDY    47  47 100 N9G16     30.10R
BROWNWOOD      CLOUDY    48  43  81 N9G18     30.10R
COLEMAN        CLOUDY    48  43  82 N13       30.09F
$$

TXZ143>147-156>162-174-175-041800-
CENTRAL TEXAS

CITY           SKY/WX    TMP DP  RH WIND       PRES   REMARKS
WACO           CLOUDY    49  47  93 N13       30.08R
WACO-MCGREGOR  CLOUDY    50  47  89 N12       30.08S
HILLSBORO      CLOUDY    50  47  89 N13       30.08R
CORSICANA      CLOUDY    51  48  89 N9        30.09R
MEXIA          CLOUDY    49  47  90 NW6       30.06S
HEARNE         CLOUDY    51  48  91 NW9       30.07R
CAMERON        CLOUDY    51  49  90 N8        30.07R
TEMPLE         CLOUDY    50  47  89 N14       30.07R
KILLEEN        CLOUDY    49  47  92 N10       30.07R
KILLEEN-SKYLRK CLOUDY    50  47  89 N9        30.08R
FORT HOOD        N/A     48  48 100 MISG      30.04
GATESVILLE     CLOUDY    48  46  93 N9        30.10R
HAMILTON       CLOUDY    47  47 100 N15       30.08R
LAMPASAS       CLOUDY    50  48  92 N6        30.08R
$$

TXZ095>097-106>112-122>126-135>138-148>153-164>167-041800-
EAST TEXAS

CITY           SKY/WX    TMP DP  RH WIND       PRES   REMARKS
PARIS          CLOUDY    48  45  87 N7        30.06F
SULPHUR SPRNGS CLOUDY    49  47  93 N6        30.09R
MOUNT PLEASANT CLOUDY    48  47  97 N5        30.08S
GILMER         CLOUDY    47  46  93 NW7       30.06R
MINEOLA        CLOUDY    48  46  93 N6        30.07R
TYLER          CLOUDY    50  46  86 N10       30.04S
LONGVIEW       CLOUDY    50  48  93 VRB5      30.04S
MARSHALL       CLOUDY    45  43  93 N6        30.06S
ATHENS         CLOUDY    48  46  93 N8        30.05S
PALESTINE      CLOUDY    50  48  94 N7        30.06S
JACKSONVILLE   CLOUDY    47  47 100 N5        30.05R
HENDERSON      CLOUDY    47  47 100 NW6       30.05S
CENTER         CLOUDY    50  48  95 N5        30.03R
NACOGDOCHES    CLOUDY    48  46  93 N9        30.02S
LUFKIN         CLOUDY    49  48  97 N7        30.02R FOG
$$

SUPPLEMENTAL OBSERVATIONS (CENTRAL)

CITY           SKY/WX    TMP DP  RH WIND       PRES   REMARKS
DENISON DAM      N/A     48  43  81 N9          N/A
CADDO GRASSLND   N/A     48  45  87 N3          N/A
PAT MAYSE LAKE   N/A     46  45  93 NW7         N/A
GREENVILLE       N/A     48  45  87 N8          N/A
MCGREGOR         N/A     50  48  93 N6          N/A
TEMPLE           N/A     52  46  82 N3G13       N/A
$$

SUPPLEMENTAL OBSERVATIONS (WEST)

CITY           SKY/WX    TMP DP  RH WIND       PRES   REMARKS
POSSUM KINGDOM   N/A     48  43  81 N7          N/A
LBJ GRASSLAND    N/A     48  45  87 N5          N/A
GRANBURY         N/A     48  43  81 N12         N/A
HAMBY            N/A     46  41  81 N8          N/A
IVIE RESERVOIR   N/A     48  41  76 N12         N/A
COLORADO BEND    N/A     48  45  87 NE6         N/A
$$

SUPPLEMENTAL OBSERVATIONS (EAST)

CITY           SKY/WX    TMP DP  RH WIND       PRES   REMARKS
CLARKSVILLE      N/A     48  43  81 N6          N/A
TEXARKANA        N/A     48  45  87 VRB5        N/A
LINDEN           N/A     48  45  87 N3          N/A
LUFKIN           N/A     50  46  87 MISG        N/A
S SABINE NF      N/A     48  46  93 NW2         N/A
$$

SUPPLEMENTAL OBSERVATIONS ARE A COLLECTION OF AUTOMATED INSTRUMENTS
THAT ARE MAINTAINED BY A VARIETY OF FEDERAL AND STATE AGENCIES.
CERTAIN ELEMENTS...SUCH AS HUMIDITY VALUES AND SUSTAINED WIND
SPEEDS...MAY BE APPROXIMATED.




USA.gov is the U.S. government's official web portal to all federal, state and local government web resources and services.